Regional Weather Roundup
Issued by NWS Albany, NY

Home | Current Version | Previous Version | Text Only | Print | Product List | Glossary On
Versions: 1 2 3 4 5 6 7 8 9 10 11 12 13 14 15 16 17 18 19 20 21 22 23 24 25 26 27 28 29 30 31 32 33 34 35 36 37 38 39 40 41 42 43 44 45 46 47 48 49
000
ASUS41 KALY 300910
RWRALY

NEW YORK STATE HOURLY WEATHER ROUNDUP
NATIONAL WEATHER SERVICE ALBANY NY
500 AM EDT MON MAR 30 2015

NOTE: "FAIR" INDICATES FEW OR NO CLOUDS BELOW 12,000 FEET WITH NO
SIGNIFICANT WEATHER AND/OR NO OBSTRUCTIONS TO VISIBILITY.

NYZ032-033-038>043-046>054-057>066-NYZ062>081-301000-
EAST


CITY           SKY/WX    TMP DP  RH WIND       PRES   REMARKS
ALBANY         CLOUDY    36  12  37 S8        29.87F WCI  30
GLENS FALLS    CLOUDY    34  13  41 SW12      29.84F WCI  25
POUGHKEEPSIE   CLOUDY    39  10  30 SW7       29.94F WCI  34
NEWBURGH       CLOUDY    36  12  38 SW5       29.94F WCI  32
MONTGOMERY     CLOUDY    36  14  40 SW10      29.92F WCI  28
WHITE PLAINS   CLOUDY    36  13  38 VRB3      29.96F
ISLIP          CLOUDY    37  27  67 SW14      30.00F WCI  28
NEW YORK CITY  CLOUDY    38  13  35 S12       30.00F WCI  30
CENTRAL PARK   CLOUDY    39  12  33 VRB5      30.00F
$$

NYZ005>009-017-018-044>046-055-056-301000-
CENTRAL


CITY           SKY/WX    TMP DP  RH WIND       PRES   REMARKS
FULTON         MIX PCPN  36  25  64 SE9       29.67F WCI  29
SYRACUSE       CLOUDY    38  22  52 S15G23    29.69F WCI  29
ROME           CLOUDY    31  29  92 SE12G21   29.78F WCI  22
ELMIRA         CLOUDY    38  28  67 SW10      29.74F WCI  31
BINGHAMTON     CLOUDY    34  16  47 SW16      29.74F WCI  24
MONTICELLO     CLOUDY    28  27  93 S6        29.87F VSB 1   WCI  22
$$

NYZ026>034-041>043-301000-
NORTH


CITY           SKY/WX    TMP DP  RH WIND       PRES   REMARKS
WATERTOWN      CLOUDY    38  27  64 S13G26    29.64F WCI  30
FORT DRUM      NOT AVBL
MASSENA        CLOUDY    35  23  61 S13       29.66F WCI  26
SARANAC LAKE   LGT SNOW  28  23  81 SW16G23   29.66F WCI  16
PLATTSBURGH    CLOUDY    33  13  43 S7        29.75F WCI  27
$$

NYZ001>004-010>016-019>021-301000-
WEST


CITY           SKY/WX    TMP DP  RH WIND       PRES   REMARKS
NIAGARA FALLS  CLOUDY    38  34  85 SW24G33   29.61F WCI  27
BUFFALO        LGT RAIN  39  34  82 SW28G41   29.63F WCI  28
DUNKIRK        LGT RAIN  41  34  76 SW26G43   29.68F
JAMESTOWN      CLOUDY    36  32  87 SW12G17   29.69F WCI  27
WELLSVILLE     LGT SNOW  34  30  85 SW15G30   29.67F FOG     WCI  24
ROCHESTER      LGT RAIN  40  29  64 SW15G25   29.64F WCI  32
PENN YAN       CLOUDY    39  28  64 S16G26    29.68F WCI  30
$$

             KEY
       WCI = WIND CHILL INDEX
       VSB = VISIBILITY
       HX  = HEAT INDEX
$$



USA.gov is the U.S. government's official web portal to all federal, state and local government web resources and services.